User: anonymous   Login
Location: Unspecified
(0.0000°N, 0.0000°E)
Time: 00:13:55
(UTC+00:00)
Language:

COMPASS 1 - Orbit

View from above orbital plane
View from above orbital plane
View from above satellite
View from above satellite

Ground track
Ground track

The orbit data is extracted from the following two-line orbital elements,

1 32787U 08021E   17326.88695024  .00000951  00000-0  97075-4 0  9996
2 32787  97.5456 353.6616 0011757 334.7966  25.2679 14.92820728519171
Epoch (UTC): 22 November 2017 21:17:12
Eccentricity: 0.0011757
inclination: 97.5456°
perigee height: 581 km
apogee height: 597 km
right ascension of ascending node: 353.6616°
argument of perigee: 334.7966°
revolutions per day: 14.92820728
mean anomaly at epoch: 25.2679°
orbit number at epoch: 51917

The dashed part of the orbit path shows where the satellite is in the earth's shadow,  

DLR